Theta_e
309 309 310 310 310 307 307 304 298 313 313 297 295 291 297 300 301 303 302 302 302 303 304 302 299 300 304 309 307 299 298 295 292 295 303 304 300 298 297 292 291 296 295 295
308 309 309 309 310 306 300 300 303 313 309 291 292 296 300 302 301 301 301 300 302 303 300 300 305 303 309 310 307 301 300 293 290 292 297 304 299 301 301 301 298 296 293 294
308 308 309 309 309 308 301 303 299 305 306 302 296 296 297 298 306 305 304 301 302 301 301 304 303 304 310 308 309 315 307 295 293 291 296 302 301 301 302 299 295 297 298 302
307 308 308 309 309 308 302 299 300 306 296 299 300 300 300 299 297 305 308 300 301 299 298 301 305 310 312 313 313 306 301 295 298 298 302 302 301 302 304 301 301 298 299 305
307 307 308 308 308 308 300 298 303 305 300 303 300 300 299 300 299 301 303 299 302 301 301 301 306 309 308 309 311 299 301 295 300 297 305 305 303 307 307 305 303 307 306 305
306 306 307 308 309 308 303 303 306 304 300 303 299 299 302 303 305 305 306 306 301 300 310 313 311 312 311 311 307 306 301 298 294 292 303 306 298 304 305 305 306 307 302 307
306 306 307 308 309 309 303 306 301 300 296 302 301 303 304 303 306 305 309 308 304 308 317 315 311 310 310 311 310 310 303 298 296 293 299 291 303 309 311 306 307 308 309 310
306 306 306 307 308 310 302 304 300 301 297 300 301 303 302 304 306 306 310 309 311 313 311 304 302 302 303 306 310 307 304 300 296 294 294 300 306 307 306 304 303 308 309 311
306 306 306 307 308 308 302 303 306 302 298 298 302 301 303 300 300 303 310 311 312 311 307 304 297 295 301 301 304 308 309 303 299 298 294 292 303 311 314 310 299 311 310 312
306 305 305 306 307 307 303 300 305 301 299 300 302 299 299 304 302 301 305 304 306 313 303 300 298 299 307 299 298 298 302 302 299 296 296 301 308 313 313 296 299 311 310 309
306 305 305 305 306 307 303 301 307 301 298 298 303 305 301 302 304 299 302 303 305 309 302 300 299 301 304 303 303 302 301 300 299 299 295 294 312 311 304 305 309 310 313 314
307 306 305 305 305 307 306 297 308 309 301 296 303 306 307 305 306 301 303 304 305 311 301 306 305 305 304 303 299 308 302 304 305 303 301 307 310 310 316 315 313 314 313 315
307 306 305 304 304 306 304 296 301 304 302 297 296 299 308 310 310 310 302 305 309 308 311 307 308 301 306 299 303 306 309 312 305 305 306 311 312 314 315 313 314 315 316 316
306 306 306 305 305 306 305 295 302 302 300 294 294 305 302 311 310 309 309 308 311 311 313 308 306 305 310 305 305 308 308 310 307 310 313 311 312 315 313 316 317 316 316 317
306 306 306 305 305 306 302 296 297 301 301 293 292 299 302 303 306 307 308 309 308 310 306 308 307 309 306 307 307 306 312 308 305 304 315 314 315 315 315 316 315 316 315 314
305 305 306 305 306 306 296 292 302 305 308 298 288 297 299 302 306 307 308 308 308 308 307 308 311 312 308 303 302 311 313 317 317 314 320 318 319 317 316 315 314 316 315 315
305 305 306 306 306 297 291 293 300 304 302 297 291 291 299 303 304 305 307 308 308 309 304 304 306 309 314 307 303 313 316 318 319 321 319 317 319 312 315 316 316 315 316 316
305 306 306 306 305 301 292 293 302 302 298 301 291 290 295 304 300 301 307 305 306 305 305 306 306 310 310 305 314 317 318 319 319 321 322 319 315 313 312 314 314 313 312 312
306 306 306 298 294 289 291 307 306 303 299 294 294 289 288 303 301 303 303 304 298 304 303 304 307 305 302 308 312 316 317 315 316 318 319 315 312 311 311 311 311 310 309 311
306 299 293 288 293 308 309 300 294 294 297 295 291 294 291 298 297 300 302 303 300 297 303 307 304 302 311 313 317 318 318 319 319 314 310 311 309 310 309 309 311 311 310 310
295 289 292 298 310 298 295 290 289 290 292 293 293 292 290 300 296 297 303 299 300 296 299 301 299 299 306 314 318 322 321 320 319 319 315 314 313 311 310 311 312 311 311 310
294 298 302 301 294 291 287 286 289 289 288 292 291 292 294 297 301 300 302 299 301 296 303 300 296 302 305 315 318 320 322 322 318 319 316 314 313 312 311 312 311 310 312 313
297 297 294 292 289 279 283 282 285 285 290 293 295 296 295 297 297 297 296 296 296 306 299 296 301 306 307 315 318 318 322 322 320 320 317 316 314 314 312 310 311 313 313 312
290 288 282 287 283 286 285 285 286 291 297 295 296 297 297 298 295 297 296 301 301 297 295 295 301 304 308 310 317 317 317 318 320 318 316 315 314 312 313 313 313 313 311 312
290 289 279 285 290 290 291 292 288 294 297 297 293 294 299 298 296 299 298 297 295 298 297 302 306 308 312 313 316 319 319 320 319 317 315 314 313 312 311 313 312 313 313 312
291 290 287 289 287 290 291 293 294 297 296 295 293 290 290 294 296 294 293 296 296 299 305 306 307 308 312 314 313 320 321 320 318 317 315 314 313 312 312 313 313 313 313 312
290 287 289 289 288 290 292 293 294 301 295 289 291 289 289 294 294 293 300 298 302 306 306 309 308 311 311 314 318 320 320 317 316 315 314 313 314 315 313 311 311 312 313 313
Wind_Speed
8 8 10 12 14 20 3 3 2 2 4 4 3 4 4 7 13 9 9 7 5 1 1 4 9 12 17 20 13 14 11 7 8 11 9 6 10 10 7 6 5 2 4 8
7 8 9 10 12 11 3 3 5 5 5 4 3 6 6 10 16 16 6 6 3 5 3 3 6 13 14 11 16 12 9 3 2 10 7 2 5 6 5 5 5 8 7 7
6 7 8 10 11 9 1 2 4 5 4 3 4 2 5 6 7 14 10 10 9 5 4 3 5 6 2 7 16 15 12 5 9 10 8 2 2 4 5 7 4 6 7 5
5 6 8 9 10 9 0 2 4 2 4 2 3 1 6 10 5 6 4 6 5 3 4 8 6 5 7 7 6 7 11 9 7 8 6 4 5 6 8 7 11 9 8 11
5 5 7 9 11 11 1 1 3 5 4 5 3 4 5 9 8 6 9 4 9 7 2 4 4 4 4 2 8 5 1 7 8 4 5 2 2 6 6 4 1 4 9 1
5 4 5 8 10 7 1 2 3 2 4 4 1 3 9 8 8 9 17 11 7 7 4 5 6 5 5 4 2 4 1 7 4 8 2 5 4 3 3 4 3 8 4 8
5 3 4 6 9 6 1 1 0 1 4 4 4 9 10 14 8 6 12 7 5 5 6 5 4 5 5 5 7 7 5 6 4 4 4 4 6 5 1 6 4 7 5 4
5 3 3 4 6 7 1 2 1 2 3 6 9 14 11 7 8 8 6 10 6 16 6 4 5 6 8 5 6 4 5 6 4 6 3 4 2 1 2 2 3 5 8 5
6 4 3 4 4 7 1 2 3 1 1 2 6 8 7 5 7 8 4 11 13 4 3 3 3 3 5 3 4 3 4 5 7 3 5 6 9 5 2 3 6 5 7 12
8 6 4 3 3 6 1 3 2 1 3 2 2 1 2 5 3 2 5 12 11 9 4 2 2 3 3 2 5 5 1 2 7 4 3 5 6 5 4 4 10 2 4 6
9 6 4 2 3 5 3 4 4 3 3 5 5 4 1 3 3 3 7 5 7 6 8 4 2 2 3 4 2 5 6 6 3 3 5 3 6 4 9 8 1 5 7 9
8 7 5 2 3 4 3 2 2 2 2 6 3 7 10 8 10 2 3 3 5 2 4 4 4 4 4 2 3 6 4 1 5 5 6 4 7 5 5 6 7 4 6 8
8 7 6 3 2 4 2 3 3 1 2 5 2 6 6 9 10 5 2 3 3 4 1 2 4 3 2 1 1 3 4 3 0 4 4 7 7 8 4 3 5 7 10 14
9 8 6 3 3 4 4 1 2 1 2 3 7 3 4 2 5 8 9 11 6 4 2 3 3 4 2 2 3 2 3 3 2 2 4 5 7 5 2 5 11 11 8 12
10 8 6 4 4 5 3 3 4 2 2 3 6 10 9 8 7 9 8 6 3 3 2 2 4 2 1 1 2 3 4 5 4 7 3 6 8 7 3 9 10 13 17 9
9 8 6 4 3 3 2 4 2 0 1 0 5 5 5 4 7 7 8 6 4 4 3 3 4 3 3 1 3 4 3 5 7 7 7 2 8 8 3 9 9 9 13 14
9 7 5 3 2 2 3 4 2 5 2 1 5 5 6 6 5 5 4 4 4 4 4 4 4 3 3 1 3 6 7 8 6 6 10 5 7 4 7 11 8 10 10 11
8 5 3 3 4 4 5 4 10 3 1 0 3 6 5 4 2 3 4 4 2 2 5 2 3 0 2 4 10 8 7 9 11 9 6 4 4 5 7 9 11 12 10 11
6 4 1 3 1 2 5 4 11 3 2 2 2 3 4 5 4 3 1 4 3 3 4 4 3 3 5 10 9 10 11 6 7 5 7 7 7 7 8 9 10 12 8 11
7 3 2 2 5 10 10 4 3 1 2 1 4 2 4 2 4 3 3 2 5 4 6 4 5 5 5 6 7 4 8 1 3 6 6 6 6 7 7 6 8 12 10 11
2 2 3 3 14 3 1 2 3 3 4 4 5 6 3 2 2 3 2 2 3 4 6 7 4 5 7 9 10 3 6 1 5 8 4 7 12 11 9 10 11 12 12 12
6 2 1 2 1 1 3 4 3 5 6 4 4 5 5 1 2 2 4 3 3 6 1 5 4 6 8 17 14 10 6 18 8 8 10 9 9 8 9 11 11 11 10 12
3 2 1 2 2 2 5 4 3 3 3 4 4 3 4 1 2 1 3 4 6 4 2 5 6 8 6 19 16 16 21 26 9 7 10 10 9 9 9 10 8 12 12 11
1 2 2 3 4 5 5 5 5 5 3 1 2 3 4 3 3 3 5 5 3 4 3 5 2 3 11 9 16 18 22 13 14 13 13 12 12 9 9 10 11 13 12 10
2 1 4 7 6 4 5 6 2 3 3 3 3 3 1 2 2 3 4 4 5 4 3 3 8 15 14 10 9 14 17 16 14 14 14 13 12 12 9 9 10 12 11 11
2 4 4 4 1 4 5 2 2 0 2 3 3 2 2 3 3 5 6 4 4 2 4 6 9 14 13 12 7 17 18 18 17 15 14 14 13 12 10 10 11 11 13 12
4 5 3 5 4 5 3 1 1 3 3 3 2 4 5 3 4 4 5 3 8 6 9 7 8 11 16 14 8 10 15 17 16 16 14 11 10 12 12 12 7 10 11 12
Wind_Direction
321 330 342 340 343 338 72 340 287 242 119 107 189 216 214 321 303 317 283 260 252 251 63 273 218 202 201 194 177 184 191 167 225 234 249 228 210 209 161 136 253 168 168 262
315 330 344 342 349 32 331 322 269 291 104 168 256 296 287 276 289 284 269 296 278 296 258 305 231 208 225 186 181 179 170 217 321 336 344 359 201 194 149 121 98 191 147 258
312 331 337 343 343 2 63 283 310 310 39 176 145 311 271 266 296 294 250 265 289 339 331 194 288 331 241 208 193 190 132 130 165 208 210 156 341 255 180 142 133 179 210 194
301 325 334 337 337 339 94 191 257 16 309 28 345 8 287 288 308 268 346 302 229 264 310 341 2 347 334 38 2 128 132 181 177 217 207 231 281 258 254 187 229 173 225 184
283 312 328 336 335 337 134 299 339 346 293 289 324 218 261 231 265 242 302 302 282 281 65 218 274 331 24 6 340 49 336 207 170 238 162 124 325 9 347 326 38 112 136 169
260 306 330 336 338 341 340 334 323 245 275 293 311 12 312 346 339 277 247 274 287 285 196 218 218 207 242 223 114 341 27 121 110 230 132 53 3 337 280 256 348 129 130 222
238 278 323 334 341 17 267 342 359 308 278 299 19 342 339 335 346 269 297 309 12 272 304 299 321 15 315 319 287 164 180 112 112 174 68 197 232 283 129 90 61 85 73 153
227 245 295 320 339 353 55 297 88 287 278 335 325 334 349 317 337 9 305 359 328 304 22 47 12 344 2 301 267 204 185 121 102 125 135 261 348 265 149 172 208 139 150 185
218 234 257 297 339 345 334 261 161 216 327 192 329 303 1 333 346 343 326 324 320 312 59 70 117 225 231 269 294 73 80 88 114 93 128 192 228 247 260 352 303 259 183 185
209 219 225 276 339 344 357 280 194 123 268 234 342 327 332 338 356 307 318 335 333 17 15 77 122 251 281 265 198 196 53 32 157 141 144 284 237 225 170 147 233 284 118 117
199 207 216 247 316 349 33 269 204 156 263 284 257 283 351 0 26 8 318 351 352 2 26 17 314 64 298 19 312 322 161 144 182 90 95 253 201 99 154 208 238 172 133 135
196 198 215 220 296 346 17 290 254 145 225 247 262 235 241 222 222 143 326 287 315 38 25 1 306 358 357 297 352 336 41 157 170 162 215 271 331 287 160 153 146 176 110 104
192 200 212 222 284 327 13 268 280 302 260 291 334 241 232 200 218 176 178 287 9 347 149 259 280 280 150 302 354 299 13 7 104 99 349 345 319 317 27 137 133 124 126 128
192 200 208 226 268 302 322 280 295 280 293 285 282 332 312 207 227 220 210 243 300 249 168 222 256 258 177 241 233 176 190 353 326 9 18 338 332 323 169 86 102 97 92 131
192 198 207 224 262 292 299 233 248 214 257 305 292 307 258 248 193 249 239 219 255 266 283 257 246 267 110 37 327 267 164 190 165 220 137 146 265 268 159 130 130 132 122 110
189 199 208 222 268 333 15 342 347 271 235 343 302 285 285 263 177 216 236 231 216 194 175 244 276 238 112 149 238 270 155 188 192 220 173 104 306 284 215 132 130 129 126 133
188 198 208 225 275 95 170 205 209 358 355 242 293 296 266 221 219 177 203 188 205 172 192 226 225 237 137 183 227 254 202 195 231 278 49 307 236 215 163 124 123 121 121 130
181 187 209 260 298 313 308 249 229 137 346 153 274 273 323 360 251 186 194 163 157 228 198 289 244 130 168 228 227 228 211 220 196 209 189 201 291 210 104 116 119 118 122 124
163 164 147 22 100 222 246 110 116 96 134 265 245 282 280 348 332 278 111 136 158 233 182 216 137 202 219 228 215 198 194 219 245 226 170 161 187 134 123 116 115 119 122 123
130 85 90 262 223 160 140 19 68 69 236 241 245 293 266 20 327 314 346 154 206 193 226 162 176 244 240 255 247 191 126 79 315 138 134 145 146 159 150 139 134 128 129 128
79 173 228 252 144 75 80 186 172 190 222 206 229 201 199 305 31 327 269 293 232 189 245 161 219 236 199 199 227 196 150 180 261 274 182 150 164 159 143 135 134 130 134 137
193 253 320 358 17 218 204 205 237 176 223 198 182 215 166 250 114 348 294 263 288 235 330 157 231 239 173 179 195 196 132 253 184 188 163 151 145 139 131 139 138 139 136 138
341 66 316 57 259 57 210 216 232 220 236 182 181 121 141 57 51 91 261 254 244 337 217 223 202 212 188 181 183 199 200 220 162 170 147 141 137 133 135 140 137 133 135 142
71 175 212 220 237 224 205 209 208 240 127 84 79 125 143 165 181 174 265 248 311 272 256 224 294 272 223 183 188 193 209 190 175 163 148 148 141 137 136 138 142 137 138 133
265 238 228 218 233 271 243 237 240 292 119 94 39 52 4 73 240 215 274 248 252 232 238 35 325 322 315 275 172 175 170 165 158 153 150 147 141 146 141 138 139 134 129 125
257 237 276 287 147 292 281 179 118 69 102 67 57 105 71 198 249 201 227 251 230 338 320 319 323 328 310 315 194 172 161 157 152 155 151 146 145 150 145 132 135 136 130 132
244 246 227 232 248 242 288 80 189 124 102 145 146 200 192 309 223 239 200 359 344 324 328 324 332 316 322 312 202 157 150 146 145 140 143 135 125 128 131 134 138 130 129 132